When you browse on this site, cookies collect data to enhance your experience and personalize the content and advertising you see.
Visit our Privacy Policy to learn more. By continuing to use the site, you agree to this use of cookies and data.
  • In Portugal
  • List of Countries
  • For 7 days
  • Water Temperature
  • Weather Map
  • Weather Widgets
  • user-avatar
    Login

    Hourly Weather Linares

    Today, 19 November, Tuesday

    Time Temperature Precipitation Wind Pressure Humidity
    00:00 +7°C° 0 mm 1 mps 726 mmHg 78%
    01:00 +6°C° 0 mm 1 mps 726 mmHg 79%
    02:00 +5°C° 0 mm 0 mps 726 mmHg 79%
    03:00 +5°C° 0 mm 0 mps 726 mmHg 80%
    04:00 +4°C° 0 mm 0 mps 726 mmHg 80%
    05:00 +4°C° 0 mm 0 mps 726 mmHg 80%
    06:00 +5°C° 0 mm 1 mps 726 mmHg 80%
    07:00 +7°C° 0 mm 1 mps 726 mmHg 75%
    08:00 +8°C° 0 mm 1 mps 726 mmHg 70%
    09:00 +9°C° 0 mm 1 mps 727 mmHg 66%
    10:00 +10°C° 0 mm 1 mps 726 mmHg 61%
    11:00 +11°C° 0 mm 1 mps 726 mmHg 57%
    12:00 +12°C° 0 mm 1 mps 726 mmHg 53%
    13:00 +13°C° 0 mm 1 mps 725 mmHg 52%
    14:00 +13°C° 0 mm 1 mps 725 mmHg 51%
    15:00 +13°C° 0 mm 1 mps 724 mmHg 50%
    16:00 +12°C° 0 mm 1 mps 724 mmHg 56%
    17:00 +9°C° 0 mm 0 mps 724 mmHg 62%
    18:00 +8°C° 0 mm 0 mps 724 mmHg 68%
    19:00 +8°C° 0 mm 0 mps 724 mmHg 69%
    20:00 +7°C° 0 mm 0 mps 724 mmHg 70%
    21:00 +7°C° 0 mm 0 mps 724 mmHg 71%
    22:00 +7°C° 0 mm 0 mps 724 mmHg 72%
    23:00 +7°C° 0 mm 0 mps 724 mmHg 73%

    Tomorrow, 20 November, Wednesday

    Time Temperature Precipitation Wind Pressure Humidity
    00:00 +6°C° 0 mm 0 mps 724 mmHg 73%
    01:00 +6°C° 0 mm 0 mps 724 mmHg 74%
    02:00 +6°C° 0 mm 0 mps 724 mmHg 74%
    03:00 +6°C° 0 mm 0 mps 723 mmHg 75%
    04:00 +5°C° 0 mm 0 mps 723 mmHg 75%
    05:00 +5°C° 0 mm 0 mps 723 mmHg 75%
    06:00 +5°C° 0 mm 0 mps 722 mmHg 75%
    07:00 +6°C° 0 mm 0 mps 723 mmHg 70%
    08:00 +7°C° 0 mm 0 mps 723 mmHg 66%
    09:00 +9°C° 0 mm 0 mps 724 mmHg 61%
    10:00 +11°C° 0 mm 1 mps 723 mmHg 57%
    11:00 +12°C° 0 mm 1 mps 723 mmHg 53%
    12:00 +13°C° 0 mm 2 mps 722 mmHg 49%
    13:00 +12°C° 0.8 mm 2 mps 722 mmHg 62%
    14:00 +9°C° 0.8 mm 3 mps 722 mmHg 75%
    15:00 +8°C° 0.8 mm 3 mps 721 mmHg 88%
    16:00 +8°C° 0.7 mm 3 mps 721 mmHg 89%
    17:00 +7°C° 0.7 mm 2 mps 721 mmHg 90%
    18:00 +8°C° 0.7 mm 1 mps 721 mmHg 90%
    19:00 +8°C° 0.1 mm 1 mps 722 mmHg 90%
    20:00 +8°C° 0.1 mm 1 mps 722 mmHg 90%
    21:00 +8°C° 0.1 mm 1 mps 722 mmHg 90%
    22:00 +8°C° 0.1 mm 1 mps 722 mmHg 90%
    23:00 +8°C° 0.1 mm 1 mps 722 mmHg 90%

    Day after tomorrow, 21 November, Thursday

    Time Temperature Precipitation Wind Pressure Humidity
    00:00 +7°C° 0.1 mm 0 mps 722 mmHg 89%
    01:00 +7°C° 0.1 mm 0 mps 722 mmHg 90%
    02:00 +7°C° 0.1 mm 0 mps 722 mmHg 90%
    03:00 +7°C° 0.1 mm 0 mps 722 mmHg 91%
    04:00 +7°C° 0 mm 0 mps 722 mmHg 91%
    05:00 +7°C° 0 mm 0 mps 722 mmHg 92%
    06:00 +7°C° 0 mm 0 mps 722 mmHg 92%
    07:00 +8°C° 0 mm 0 mps 722 mmHg 90%
    08:00 +8°C° 0 mm 0 mps 723 mmHg 88%
    09:00 +9°C° 0 mm 0 mps 723 mmHg 86%
    10:00 +11°C° 0 mm 1 mps 723 mmHg 82%
    11:00 +12°C° 0 mm 1 mps 723 mmHg 77%
    12:00 +13°C° 0 mm 1 mps 723 mmHg 72%
    13:00 +13°C° 0 mm 1 mps 722 mmHg 71%
    14:00 +13°C° 0 mm 2 mps 722 mmHg 70%
    15:00 +14°C° 0 mm 2 mps 722 mmHg 69%
    16:00 +13°C° 0.3 mm 2 mps 722 mmHg 76%
    17:00 +12°C° 0.3 mm 1 mps 722 mmHg 83%
    18:00 +11°C° 0.3 mm 1 mps 722 mmHg 90%
    19:00 +11°C° 0.1 mm 1 mps 722 mmHg 90%
    20:00 +11°C° 0.1 mm 1 mps 722 mmHg 90%
    21:00 +11°C° 0.1 mm 1 mps 723 mmHg 90%
    22:00 +11°C° 0.2 mm 1 mps 722 mmHg 90%
    23:00 +11°C° 0.2 mm 1 mps 722 mmHg 90%

    22 November, Friday

    Time Temperature Precipitation Wind Pressure Humidity
    00:00 +11°C° 0.2 mm 1 mps 722 mmHg 89%
    01:00 +11°C° 0.3 mm 1 mps 722 mmHg 90%
    02:00 +11°C° 0.3 mm 1 mps 721 mmHg 91%
    03:00 +11°C° 0.3 mm 1 mps 721 mmHg 92%
    04:00 +11°C° 0.1 mm 1 mps 721 mmHg 91%
    05:00 +11°C° 0.1 mm 1 mps 721 mmHg 90%
    06:00 +11°C° 0.1 mm 1 mps 720 mmHg 88%
    07:00 +11°C° 0.9 mm 1 mps 720 mmHg 89%
    08:00 +12°C° 0.9 mm 2 mps 720 mmHg 90%
    09:00 +12°C° 0.9 mm 2 mps 720 mmHg 91%
    10:00 +11°C° 1.2 mm 3 mps 720 mmHg 90%
    11:00 +12°C° 1.2 mm 4 mps 719 mmHg 89%
    12:00 +12°C° 1.2 mm 5 mps 719 mmHg 87%
    13:00 +13°C° 1.9 mm 5 mps 718 mmHg 88%
    14:00 +13°C° 1.9 mm 5 mps 718 mmHg 90%
    15:00 +13°C° 1.9 mm 6 mps 717 mmHg 91%
    16:00 +13°C° 1.7 mm 5 mps 717 mmHg 93%
    17:00 +13°C° 1.7 mm 5 mps 718 mmHg 94%
    18:00 +13°C° 1.7 mm 4 mps 718 mmHg 96%
    19:00 +13°C° 1.4 mm 4 mps 718 mmHg 96%
    20:00 +13°C° 1.4 mm 4 mps 718 mmHg 95%
    21:00 +13°C° 1.4 mm 4 mps 718 mmHg 95%
    22:00 +13°C° 1.4 mm 4 mps 718 mmHg 95%
    23:00 +13°C° 1.4 mm 4 mps 718 mmHg 95%

    23 November, Saturday

    Time Temperature Precipitation Wind Pressure Humidity
    00:00 +14°C° 1.4 mm 4 mps 718 mmHg 96%
    01:00 +13°C° 0.4 mm 5 mps 718 mmHg 95%
    02:00 +13°C° 0.4 mm 5 mps 718 mmHg 94%
    03:00 +13°C° 0.4 mm 5 mps 718 mmHg 93%
    04:00 +13°C° 0.2 mm 5 mps 719 mmHg 93%
    05:00 +12°C° 0.2 mm 5 mps 719 mmHg 92%
    06:00 +12°C° 0.2 mm 5 mps 720 mmHg 92%
    07:00 +12°C° 0.1 mm 5 mps 720 mmHg 88%
    08:00 +11°C° 0.1 mm 6 mps 721 mmHg 83%
    09:00 +11°C° 0.1 mm 6 mps 721 mmHg 79%
    10:00 +11°C° 0 mm 6 mps 721 mmHg 77%
    11:00 +13°C° 0 mm 6 mps 722 mmHg 75%
    12:00 +13°C° 0 mm 6 mps 722 mmHg 74%
    13:00 +13°C° 0 mm 6 mps 722 mmHg 73%
    14:00 +13°C° 0 mm 6 mps 721 mmHg 71%
    15:00 +14°C° 0 mm 6 mps 721 mmHg 70%
    16:00 +13°C° 0 mm 5 mps 722 mmHg 74%
    17:00 +12°C° 0 mm 4 mps 723 mmHg 78%
    18:00 +11°C° 0 mm 3 mps 724 mmHg 82%
    19:00 +10°C° 0 mm 2 mps 724 mmHg 83%
    20:00 +10°C° 0 mm 1 mps 725 mmHg 84%
    21:00 +10°C° 0 mm 1 mps 725 mmHg 86%
    22:00 +9°C° 0 mm 1 mps 726 mmHg 87%
    23:00 +8°C° 0 mm 0 mps 726 mmHg 88%

    24 November, Sunday

    Time Temperature Precipitation Wind Pressure Humidity
    00:00 +8°C° 0 mm 0 mps 727 mmHg 89%
    01:00 +7°C° 0 mm 0 mps 726 mmHg 89%
    02:00 +7°C° 0 mm 0 mps 726 mmHg 90%
    03:00 +7°C° 0 mm 0 mps 726 mmHg 90%
    04:00 +6°C° 0 mm 0 mps 726 mmHg 90%
    05:00 +6°C° 0 mm 0 mps 727 mmHg 90%
    06:00 +6°C° 0 mm 0 mps 727 mmHg 91%
    07:00 +7°C° 0 mm 0 mps 727 mmHg 86%
    08:00 +8°C° 0 mm 0 mps 728 mmHg 82%
    09:00 +9°C° 0 mm 0 mps 728 mmHg 78%
    10:00 +11°C° 0 mm 0 mps 728 mmHg 71%
    11:00 +12°C° 0 mm 0 mps 728 mmHg 64%
    12:00 +13°C° 0 mm 0 mps 728 mmHg 57%
    13:00 +14°C° 0 mm 0 mps 728 mmHg 54%
    14:00 +14°C° 0 mm 0 mps 727 mmHg 52%
    15:00 +15°C° 0 mm 1 mps 727 mmHg 50%
    16:00 +13°C° 0 mm 0 mps 727 mmHg 56%
    17:00 +11°C° 0 mm 0 mps 727 mmHg 63%
    18:00 +10°C° 0 mm 0 mps 727 mmHg 69%
    19:00 +9°C° 0 mm 0 mps 727 mmHg 69%
    20:00 +9°C° 0 mm 0 mps 727 mmHg 69%
    21:00 +9°C° 0 mm 0 mps 728 mmHg 69%
    22:00 +10°C° 0 mm 1 mps 727 mmHg 70%
    23:00 +10°C° 0 mm 1 mps 727 mmHg 70%
    Show more